FW2044 Weather Reports


time (UTC)temp
C
wind
direction
speed
KPH
gust
KPH
rain 1hr
cm
rain 24hr
cm
rain mn
cm
humidity
%
barometer
mb
20260510120035 18 250 0.0 1.6 0.00 0.00 0.00 77 1012.4
20260510114535 18 259 9.7 19.3 0.00 0.00 0.00 78 1012.6
20260510113038 19 259 3.2 22.5 0.00 0.00 0.00 67 1012.5
20260510111536 18 299 1.6 9.7 0.00 0.00 0.00 63 1012.4
20260510110035 17 285 0.0 0.0 0.00 0.00 0.00 64 1012.2
20260510104530 17 285 0.0 0.0 0.00 0.00 0.00 64 1012.2
20260510103029 17 285 0.0 0.0 0.00 0.00 0.00 64 1012.1
20260510101528 17 285 0.0 0.0 0.00 0.00 0.00 64 1012.1
20260510100029 17 285 0.0 0.0 0.00 0.00 0.00 64 1012.0
20260510094526 17 285 0.0 0.0 0.00 0.00 0.00 64 1012.1
20260510093042 17 285 0.0 0.0 0.00 0.00 0.00 65 1011.9
20260510091528 17 285 0.0 0.0 0.00 0.00 0.00 65 1011.9
20260510090039 17 285 0.0 0.0 0.00 0.00 0.00 66 1011.9
20260510084523 17 285 0.0 0.0 0.00 0.00 0.00 66 1011.5
20260510083019 17 285 0.0 0.0 0.00 0.00 0.00 67 1011.3
20260510081517 17 285 0.0 0.0 0.00 0.00 0.00 67 1011.0
20260510080016 17 285 0.0 0.0 0.00 0.00 0.00 68 1011.0
20260510074516 17 285 0.0 0.0 0.00 0.00 0.00 69 1010.9
20260510073016 17 285 0.0 0.0 0.00 0.00 0.00 72 1011.0
20260510071512 17 285 0.0 0.0 0.00 0.00 0.00 72 1010.8
20260510070010 17 285 0.0 0.0 0.00 0.00 0.00 74 1010.8
20260510064508 18 285 0.0 0.0 0.00 0.00 0.00 73 1011.1
20260510063006 18 285 0.0 0.0 0.00 0.00 0.00 77 1011.0
20260510061501 18 286 0.0 0.0 0.00 0.00 0.00 82 1011.0
20260510060059 18 286 0.0 0.0 0.00 0.00 0.00 82 1011.2
20260510054557 19 285 0.0 1.6 0.00 0.00 0.00 83 1011.1
20260510053057 19 285 0.0 1.6 0.00 0.00 0.00 84 1011.0
20260510051556 19 269 0.0 0.0 0.00 0.00 0.00 85 1010.7
20260510050053 20 269 0.0 1.6 0.00 0.00 0.00 85 1010.5
20260510044609 20 250 0.0 1.6 0.00 0.00 0.00 85 1010.4
20260510043047 20 270 0.0 1.6 0.00 0.00 0.00 85 1010.4
20260510041548 20 277 0.0 1.6 0.00 0.00 0.00 84 1010.4
20260510040046 20 265 0.0 1.6 0.00 0.00 0.00 84 1010.3
20260510034544 20 269 0.0 1.6 0.00 0.00 0.00 83 1010.2
20260510033044 20 285 0.0 1.6 0.00 0.00 0.00 84 1010.2
20260510031541 21 285 0.0 1.6 0.00 0.00 0.00 83 1010.1
20260510030041 20 41 0.0 1.6 0.00 0.00 0.00 84 1009.8
20260510024539 20 334 0.0 0.0 0.00 0.00 0.00 83 1009.5
20260510023038 20 283 0.0 0.0 0.00 0.00 0.00 82 1009.2
20260510021537 20 286 0.0 0.0 0.00 0.00 0.00 82 1009.1
20260510020037 21 286 0.0 0.0 0.00 0.00 0.00 81 1008.8
20260510014537 21 291 0.0 0.0 0.00 0.00 0.00 80 1008.8
20260510013035 21 290 0.0 0.0 0.00 0.00 0.00 78 1008.6
20260510011535 22 290 0.0 0.0 0.00 0.00 0.00 77 1008.5
20260510010034 23 290 0.0 0.0 0.00 0.00 0.00 74 1008.2
20260510004536 24 290 0.0 0.0 0.00 0.00 0.00 69 1008.1
20260510003034 26 288 0.0 1.6 0.00 0.00 0.00 65 1008.0
20260510001533 26 13 0.0 1.6 0.00 0.00 0.00 61 1007.8
20260510000033 28 325 0.0 0.0 0.00 0.00 0.00 57 1007.7
20260509234532 27 354 0.0 0.0 0.00 0.00 0.00 58 1007.5
20260509233031 27 98 0.0 4.8 0.00 0.00 0.00 60 1007.5
20260509231532 27 100 0.0 6.4 0.00 0.00 0.00 59 1007.4
20260509230030 27 68 0.0 1.6 0.00 0.00 0.00 60 1007.4
20260509224535 26 75 0.0 1.6 0.00 0.00 0.00 62 1007.4
20260509223030 26 293 0.0 0.0 0.00 0.00 0.00 62 1007.2
20260509221530 26 291 0.0 1.6 0.00 0.00 0.00 61 1007.2
20260509220030 27 291 0.0 1.6 0.00 0.00 0.00 57 1007.2
20260509214530 28 86 0.0 4.8 0.00 0.00 0.00 54 1007.2
20260509213026 28 282 0.0 1.6 0.00 0.00 0.00 55 1007.1
20260509211529 28 297 0.0 6.4 0.00 0.00 0.00 55 1007.3
20260509210026 29 272 0.0 3.2 0.00 0.00 0.00 51 1007.3
20260509204523 29 235 0.0 4.8 0.00 0.00 0.00 51 1007.5
20260509203025 29 282 0.0 1.6 0.00 0.00 0.00 50 1007.6
20260509201521 28 266 0.0 3.2 0.00 0.00 0.00 53 1007.8
20260509200119 28 115 0.0 8.0 0.00 0.00 0.00 50 1008.1
20260509194520 28 269 0.0 1.6 0.00 0.00 0.00 52 1008.2
20260509193016 28 280 0.0 1.6 0.00 0.00 0.00 51 1008.3
20260509191516 28 8 0.0 3.2 0.00 0.00 0.00 53 1008.4
20260509190012 28 169 0.0 3.2 0.00 0.00 0.00 51 1008.4
20260509184512 27 309 0.0 4.8 0.00 0.00 0.00 55 1008.4
20260509183013 27 338 0.0 3.2 0.00 0.00 0.00 55 1008.7
20260509181507 27 72 0.0 3.2 0.00 0.00 0.00 51 1008.7
20260509180003 26 122 0.0 3.2 0.00 0.00 0.00 60 1008.9
20260509174502 26 136 0.0 3.2 0.00 0.00 0.00 63 1009.0
20260509173104 26 209 0.0 3.2 0.00 0.00 0.00 63 1009.1
20260509171600 25 151 1.6 4.8 0.00 0.00 0.00 60 1009.1
20260509170101 26 316 3.2 4.8 0.00 0.00 0.00 59 1009.1
20260509164608 26 134 1.6 8.0 0.00 0.00 0.00 59 1009.1
20260509163055 26 307 0.0 3.2 0.00 0.00 0.00 61 1008.9
20260509161556 25 167 0.0 6.4 0.00 0.00 0.00 65 1009.0
20260509160048 24 20 1.6 4.8 0.00 0.00 0.00 65 1009.0
20260509154545 23 340 1.6 4.8 0.00 0.00 0.00 68 1009.1
20260509153044 23 319 3.2 9.7 0.00 0.00 0.00 67 1009.1
20260509151541 22 313 3.2 8.0 0.00 0.00 0.00 69 1009.1
20260509150040 22 302 0.0 3.2 0.00 0.00 0.00 72 1009.2
20260509144541 21 297 1.6 9.7 0.00 0.00 0.00 72 1009.3
20260509143037 22 153 0.0 0.0 0.00 0.00 0.00 75 1009.3
20260509141534 21 172 0.0 0.0 0.00 0.00 0.00 78 1009.4
20260509140034 21 186 0.0 1.6 0.00 0.00 0.00 80 1009.6
20260509134527 19 248 0.0 0.0 0.00 0.00 0.00 84 1009.6
20260509133026 18 248 0.0 0.0 0.00 0.00 0.00 86 1009.8
20260509131520 16 248 0.0 0.0 0.00 0.00 0.00 76 1009.7
20260509130033 15 248 0.0 0.0 0.00 0.00 0.00 69 1009.6
20260509124516 15 248 0.0 0.0 0.00 0.00 0.00 68 1009.3
20260509123016 14 248 0.0 0.0 0.00 0.00 0.00 69 1009.3
20260509121514 14 248 0.0 0.0 0.00 0.00 0.00 69 1009.0